Location: Drocourt
(49.0571°N, 1.7669°E)
Time: 14:31:17
(UTC+00:00)

SR - Pass Details

Date: 15 April 2024
Orbit: 579 x 859 km, 66.7° (Epoch: 28 May)

Event Time Altitude Azimuth Distance (km) Brightness Sun altitude
Rises 12:44:26 0° 310° (NW) 2,969 ? 49.5°
Reaches altitude 10° 12:47:40 10° 288° (WNW) 2,000 ? 49.4°
Maximum altitude 12:50:08 15° 254° (WSW) 1,672 ? 49.2°
Drops below altitude 10° 12:52:32 10° 220° (SW) 1,930 ? 49.1°
Sets 12:55:34 0° 196° (SSW) 2,799 ? 48.9°
